FW7644 Weather Reports


time (UTC)temp
F
wind
direction
speed
knots
gust
knots
rain 1hr
in
rain 24hr
in
rain mn
in
humidity
%
barometer
mb
20260904212225 61 0.0 0.0 0.06 0.27 0.27 99 1017.5
20260904211723 61 0.0 0.0 0.06 0.27 0.27 99 1017.5
20260904211221 61 0.0 0.0 0.06 0.27 0.27 99 1017.6
20260904210720 61 0.0 0.0 0.07 0.27 0.27 99 1017.5
20260904210219 61 0.0 0.0 0.07 0.27 0.27 99 1017.2
20260904205717 61 0.0 0.0 0.07 0.27 0.27 99 1017.0
20260904205215 61 0.0 0.0 0.07 0.27 0.27 99 1016.6
20260904204714 61 0.0 0.0 0.07 0.27 0.27 99 1016.4
20260904204212 62 0.0 0.0 0.07 0.27 0.27 99 1016.8
20260904203710 62 0.0 0.0 0.05 0.25 0.25 99 1017.5
20260904203208 62 0.0 0.0 0.04 0.24 0.24 99 1017.7
20260904202706 62 0.0 0.0 0.03 0.23 0.23 99 1017.9
20260904202205 62 0.0 0.0 0.02 0.22 0.22 99 1018.2
20260904201703 62 0.0 0.0 0.01 0.21 0.21 99 1018.0
20260904201201 62 0.0 0.0 0.01 0.21 0.21 99 1017.6
20260904200700 62 0.0 0.0 0.01 0.20 0.20 99 1017.6
20260904200158 62 0.0 0.0 0.01 0.20 0.20 99 1017.3
20260904195656 62 0.0 0.0 0.01 0.20 0.20 99 1017.1
20260904195154 62 0.0 0.0 0.01 0.20 0.20 99 1017.0
20260904194653 63 0.0 0.0 0.01 0.20 0.20 98 1017.2
20260904194151 63 0.0 0.0 0.01 0.20 0.20 98 1017.3
20260904193649 63 0.0 0.0 0.01 0.20 0.20 98 1017.4
20260904193147 63 0.0 0.0 0.01 0.20 0.20 98 1017.6
20260904192646 63 0.0 0.0 0.01 0.20 0.20 97 1017.6
20260904192144 63 0.0 0.0 0.01 0.20 0.20 97 1017.2
20260904191642 63 0.0 0.0 0.01 0.20 0.20 96 1017.2
20260904191140 63 0.0 0.0 0.01 0.20 0.20 96 1017.1
20260904190638 63 0.0 0.0 0.01 0.20 0.20 96 1016.7
20260904190137 63 0.0 0.0 0.00 0.19 0.19 97 1016.1
20260904185635 63 0.0 0.0 0.00 0.19 0.19 95 1016.3
20260904185134 64 0.0 0.0 0.00 0.19 0.19 95 1016.4
20260904184632 64 0.0 0.0 0.00 0.19 0.19 94 1016.5
20260904184130 64 0.0 0.0 0.00 0.19 0.19 94 1016.2
20260904183628 64 0.0 0.0 0.00 0.19 0.19 93 1015.9
20260904183127 64 0.0 0.0 0.00 0.19 0.19 96 1016.3
20260904182625 64 0.0 0.0 0.02 0.19 0.19 96 1016.2
20260904182123 64 0.0 0.0 0.02 0.19 0.19 95 1016.3
20260904181622 64 0.0 0.0 0.04 0.19 0.19 95 1016.4
20260904181120 63 0.0 0.0 0.04 0.19 0.19 96 1016.7
20260904180619 63 0.0 0.0 0.11 0.19 0.19 96 1016.7
20260904180117 64 0.0 0.0 0.11 0.19 0.19 96 1016.6
20260904175615 63 0.0 0.0 0.17 0.19 0.19 97 1016.3
20260904175113 63 0.0 0.0 0.17 0.19 0.19 97 1016.1
20260904174613 62 0.0 0.0 0.19 0.19 0.19 98 1016.0
20260904174111 62 0.0 0.0 0.19 0.19 0.19 97 1016.3
20260904173609 62 0.0 0.0 0.19 0.19 0.19 97 1016.7
20260904173107 61 0.0 0.0 0.19 0.19 0.19 95 1016.3
20260904172605 62 0.0 0.0 0.18 0.18 0.18 93 1016.4
20260904172104 62 0.0 0.0 0.17 0.17 0.17 93 1017.5
20260904171602 62 0.0 0.0 0.17 0.17 0.17 93 1017.5
20260904171100 62 0.0 0.0 0.16 0.16 0.16 93 1018.1
20260904170559 62 0.0 0.0 0.14 0.14 0.14 88 1018.5
20260904170057 64 0.0 0.0 0.09 0.09 0.09 82 1018.2
20260904165555 64 0.0 0.0 0.06 0.06 0.06 76 1017.1
20260904165054 70 0.0 0.0 0.03 0.03 0.03 60 1016.3
20260904164552 73 0.0 0.0 0.00 0.00 0.00 46 1015.8
20260904164050 74 0.0 0.0 0.00 0.00 0.00 44 1015.6
20260904163548 74 0.0 0.0 0.00 0.00 0.00 44 1015.5
20260904163047 75 0.0 0.0 0.00 0.00 0.00 42 1015.5
20260904162545 76 0.0 0.0 0.00 0.00 0.00 42 1015.4
20260904162043 77 0.0 0.0 0.00 0.00 0.00 40 1015.4
20260904161541 76 0.0 0.0 0.00 0.00 0.00 39 1015.5
20260904161039 76 0.0 0.0 0.00 0.00 0.00 41 1015.7
20260904160537 78 0.0 0.0 0.00 0.00 0.00 38 1015.8
20260904160035 77 0.0 0.0 0.00 0.00 0.00 40 1015.8
20260904155532 78 0.0 0.0 0.00 0.00 0.00 38 1015.9
20260904155030 77 0.0 0.0 0.00 0.00 0.00 39 1016.1
20260904154528 76 0.0 0.0 0.00 0.00 0.00 41 1016.4
20260904154025 77 0.0 0.0 0.00 0.00 0.00 42 1016.3
20260904153522 75 0.0 0.0 0.00 0.00 0.00 44 1016.5
20260904153020 76 0.0 0.0 0.00 0.00 0.00 43 1016.7
20260904152518 75 0.0 0.0 0.00 0.00 0.00 44 1016.8
20260904152016 76 0.0 0.0 0.00 0.00 0.00 43 1016.8
20260904151514 76 0.0 0.0 0.00 0.00 0.00 42 1017.0
20260904151012 76 0.0 0.0 0.00 0.00 0.00 40 1017.0
20260904150510 77 0.0 0.0 0.00 0.00 0.00 40 1017.1
20260904150007 77 0.0 0.0 0.00 0.00 0.00 40 1017.1
20260904145505 77 0.0 0.0 0.00 0.00 0.00 39 1017.2
20260904145003 77 0.0 0.0 0.00 0.00 0.00 39 1017.2
20260904144501 77 0.0 0.0 0.00 0.00 0.00 38 1017.3
20260904143958 78 0.0 0.0 0.00 0.00 0.00 37 1017.4
20260904143456 78 0.0 0.0 0.00 0.00 0.00 37 1017.5
20260904142954 77 0.0 0.0 0.00 0.00 0.00 38 1017.5
20260904142452 77 0.0 0.0 0.00 0.00 0.00 38 1017.6
20260904141951 77 0.0 0.0 0.00 0.00 0.00 38 1017.6
20260904141449 78 0.0 0.0 0.00 0.00 0.00 37 1017.7
20260904140946 78 0.0 0.0 0.00 0.00 0.00 38 1017.8
20260904140444 77 0.0 0.0 0.00 0.00 0.00 41 1017.9
20260904135941 76 0.0 0.0 0.00 0.00 0.00 42 1018.0
20260904135439 75 0.0 0.0 0.00 0.00 0.00 43 1018.2
20260904134937 75 0.0 0.0 0.00 0.00 0.00 42 1018.2
20260904134435 76 0.0 0.0 0.00 0.00 0.00 41 1018.2
20260904133933 77 0.0 0.0 0.00 0.00 0.00 41 1018.1
20260904133431 78 0.0 0.0 0.00 0.00 0.00 38 1018.2
20260904132928 78 0.0 0.0 0.00 0.00 0.00 40 1018.1
20260904132424 77 0.0 0.0 0.00 0.00 0.00 41 1018.1
20260904131922 79 0.0 0.0 0.00 0.00 0.00 39 1018.2
20260904131420 79 0.0 0.0 0.00 0.00 0.00 40 1018.3
20260904130918 77 0.0 0.0 0.00 0.00 0.00 42 1018.4
20260904130415 79 0.0 0.0 0.00 0.00 0.00 40 1018.5
20260904125912 79 0.0 0.0 0.00 0.00 0.00 41 1018.5
20260904125410 78 0.0 0.0 0.00 0.00 0.00 41 1018.5
20260904124907 79 0.0 0.0 0.00 0.00 0.00 40 1018.7
20260904124404 78 0.0 0.0 0.00 0.00 0.00 43 1018.8
20260904123902 75 0.0 0.0 0.00 0.00 0.00 48 1018.8
20260904123359 74 0.0 0.0 0.00 0.00 0.00 50 1018.7
20260904122856 72 0.0 0.0 0.00 0.00 0.00 52 1018.6
20260904122354 73 0.0 0.0 0.00 0.00 0.00 51 1018.6
20260904121850 75 0.0 0.0 0.00 0.00 0.00 49 1018.5
20260904121348 76 0.0 0.0 0.00 0.00 0.00 47 1018.5
20260904120845 75 0.0 0.0 0.00 0.00 0.00 48 1018.5
20260904120342 76 0.0 0.0 0.00 0.00 0.00 48 1018.4
20260904115839 74 0.0 0.0 0.00 0.00 0.00 50 1018.4
20260904115337 75 0.0 0.0 0.00 0.00 0.00 49 1018.4
20260904114835 74 0.0 0.0 0.00 0.00 0.00 51 1018.4
20260904114333 73 0.0 0.0 0.00 0.00 0.00 55 1018.4
20260904113831 74 0.0 0.0 0.00 0.00 0.00 54 1018.4
20260904113329 73 0.0 0.0 0.00 0.00 0.00 55 1018.3
20260904112826 74 0.0 0.0 0.00 0.00 0.00 52 1018.3
20260904112323 74 0.0 0.0 0.00 0.00 0.00 55 1018.3
20260904111821 71 0.0 0.0 0.00 0.00 0.00 58 1018.2
20260904111318 70 0.0 0.0 0.00 0.00 0.00 60 1018.3
20260904110816 69 0.0 0.0 0.00 0.00 0.00 62 1018.2
20260904110314 67 0.0 0.0 0.00 0.00 0.00 67 1018.0
20260904105812 66 0.0 0.0 0.00 0.00 0.00 68 1018.1
20260904105310 66 0.0 0.0 0.00 0.00 0.00 70 1018.1
20260904104808 66 0.0 0.0 0.00 0.00 0.00 69 1018.0
20260904104307 65 0.0 0.0 0.00 0.00 0.00 71 1017.9
20260904103805 64 0.0 0.0 0.00 0.00 0.00 75 1017.8
20260904103303 60 0.0 0.0 0.00 0.00 0.00 87 1017.8
20260904102801 58 0.0 0.0 0.00 0.00 0.00 90 1017.8
20260904102300 57 0.0 0.0 0.00 0.00 0.00 90 1017.8
20260904101758 57 0.0 0.0 0.00 0.00 0.00 93 1017.8
20260904101256 56 0.0 0.0 0.00 0.00 0.00 94 1017.8
20260904100754 56 0.0 0.0 0.00 0.00 0.00 95 1017.7
20260904100252 55 0.0 0.0 0.00 0.00 0.00 96 1017.7
20260904095750 55 0.0 0.0 0.00 0.00 0.00 96 1017.6
20260904095248 55 0.0 0.0 0.00 0.00 0.00 96 1017.6
20260904094747 55 0.0 0.0 0.00 0.00 0.00 96 1017.6
20260904094246 55 0.0 0.0 0.00 0.00 0.00 95 1017.5
20260904093745 55 0.0 0.0 0.00 0.00 0.00 95 1017.5
20260904093243 55 0.0 0.0 0.00 0.00 0.00 94 1017.5
20260904092741 55 0.0 0.0 0.00 0.00 0.00 94 1017.4
20260904092240 56 0.0 0.0 0.00 0.00 0.00 93 1017.4
20260904091738 56 0.0 0.0 0.00 0.00 0.00 92 1017.2
20260904091236 56 0.0 0.0 0.00 0.00 0.00 91 1017.1
20260904090735 57 0.0 0.0 0.00 0.00 0.00 91 1017.0
20260904090233 57 0.0 0.0 0.00 0.00 0.00 91 1017.1
20260904085731 57 0.0 0.0 0.00 0.00 0.00 91 1017.1
20260904085230 57 0.0 0.0 0.00 0.00 0.00 91 1017.2
20260904084728 57 0.0 0.0 0.00 0.00 0.00 90 1017.1
20260904084227 57 0.0 0.0 0.00 0.00 0.00 90 1017.0
20260904083726 57 0.0 0.0 0.00 0.00 0.00 89 1017.0
20260904083224 57 0.0 0.0 0.00 0.00 0.00 89 1017.0
20260904082723 57 0.0 0.0 0.00 0.00 0.00 89 1017.0
20260904082223 57 0.0 0.0 0.00 0.00 0.00 89 1016.9
20260904081721 57 0.0 0.0 0.00 0.00 0.00 89 1016.9
20260904081219 57 0.0 0.0 0.00 0.00 0.00 89 1016.7
20260904080718 57 0.0 0.0 0.00 0.00 0.00 89 1016.7
20260904080216 57 0.0 0.0 0.00 0.00 0.00 89 1016.7
20260904075714 57 0.0 0.0 0.00 0.00 0.00 89 1016.5
20260904075212 57 0.0 0.0 0.00 0.00 0.00 89 1016.5
20260904074711 57 0.0 0.0 0.00 0.00 0.00 88 1016.5
20260904074210 57 0.0 0.0 0.00 0.00 0.00 89 1016.5
20260904073708 57 0.0 0.0 0.00 0.00 0.00 88 1016.5
20260904073207 56 0.0 0.0 0.00 0.00 0.00 88 1016.4
20260904072705 56 0.0 0.0 0.00 0.00 0.00 88 1016.2
20260904072204 56 0.0 0.0 0.00 0.00 0.00 88 1016.4
20260904071702 56 0.0 0.0 0.00 0.00 0.00 87 1016.4
20260904071201 57 0.0 0.0 0.00 0.00 0.00 87 1016.5
20260904070659 56 0.0 0.0 0.00 0.00 0.00 87 1016.3
20260904070158 56 0.0 0.0 0.00 0.00 0.00 88 1016.3
20260904065656 56 0.0 0.0 0.00 0.00 0.00 89 1016.2
20260904065155 55 0.0 0.0 0.00 0.00 0.00 89 1016.2
20260904064654 55 0.0 0.0 0.00 0.00 0.00 89 1016.1
20260904064152 55 0.0 0.0 0.00 0.00 0.00 89 1016.2
20260904063651 55 0.0 0.0 0.00 0.00 0.00 89 1016.2
20260904063149 55 0.0 0.0 0.00 0.00 0.00 88 1016.2
20260904062648 55 0.0 0.0 0.00 0.00 0.00 88 1016.2
20260904062146 55 0.0 0.0 0.00 0.00 0.00 89 1016.2
20260904061645 54 0.0 0.0 0.00 0.00 0.00 89 1016.1
20260904061143 54 0.0 0.0 0.00 0.00 0.00 89 1016.0
20260904060642 54 0.0 0.0 0.00 0.00 0.00 88 1016.0
20260904060140 55 0.0 0.0 0.00 0.00 0.00 88 1016.1
20260904055639 55 0.0 0.0 0.00 0.00 0.00 88 1016.1
20260904055137 54 0.0 0.0 0.00 0.00 0.00 89 1016.1
20260904054635 55 0.0 0.0 0.00 0.00 0.00 88 1016.3
20260904054134 54 0.0 0.0 0.00 0.00 0.00 88 1016.4
20260904053633 55 0.0 0.0 0.00 0.00 0.00 88 1016.6
20260904053131 55 0.0 0.0 0.00 0.00 0.00 88 1016.6
20260904052629 54 0.0 0.0 0.00 0.00 0.00 88 1016.6
20260904052128 54 0.0 0.0 0.00 0.00 0.00 88 1016.6
20260904051626 54 0.0 0.0 0.00 0.00 0.00 88 1016.6
20260904051124 54 0.0 0.0 0.00 0.00 0.00 88 1016.7
20260904050623 54 0.0 0.0 0.00 0.00 0.00 88 1016.6
20260904050121 54 0.0 0.0 0.00 0.00 0.00 88 1016.6
20260904045620 54 0.0 0.0 0.00 0.00 0.00 88 1016.6
20260904045118 54 0.0 0.0 0.00 0.00 0.00 89 1016.7
20260904044617 53 0.0 0.0 0.00 0.00 0.00 89 1016.7
20260904044116 53 0.0 0.0 0.00 0.00 0.00 88 1016.7
20260904043614 53 0.0 0.0 0.00 0.00 0.00 89 1016.7
20260904043112 53 0.0 0.0 0.00 0.00 0.00 89 1016.7
20260904042611 53 0.0 0.0 0.00 0.00 0.00 88 1016.7
20260904042109 53 0.0 0.0 0.00 0.00 0.00 88 1016.7
20260904041608 53 0.0 0.0 0.00 0.00 0.00 88 1016.8
20260904041106 53 0.0 0.0 0.00 0.00 0.00 88 1016.9
20260904040605 53 0.0 0.0 0.00 0.00 0.00 88 1016.9
20260904040103 53 0.0 0.0 0.00 0.00 0.00 89 1016.9
20260904035602 53 0.0 0.0 0.00 0.00 0.00 89 1016.9
20260904035100 53 0.0 0.0 0.00 0.00 0.00 89 1016.9
20260904034559 53 0.0 0.0 0.00 0.00 0.00 89 1016.9
20260904034057 53 0.0 0.0 0.00 0.00 0.00 88 1016.8
20260904033556 53 0.0 0.0 0.00 0.00 0.00 88 1016.9
20260904033054 53 0.0 0.0 0.00 0.00 0.00 88 1017.0
20260904032552 53 0.0 0.0 0.00 0.00 0.00 87 1016.9
20260904032051 53 0.0 0.0 0.00 0.00 0.00 87 1016.9
20260904031549 53 0.0 0.0 0.00 0.00 0.00 87 1017.0
20260904031047 53 0.0 0.0 0.00 0.00 0.00 87 1017.1
20260904030546 53 0.0 0.0 0.00 0.00 0.00 87 1017.2
20260904030045 53 0.0 0.0 0.00 0.00 0.00 87 1017.2
20260904025543 53 0.0 0.0 0.00 0.00 0.00 87 1017.2
20260904025042 53 0.0 0.0 0.00 0.00 0.00 87 1017.2
20260904024540 53 0.0 0.0 0.00 0.00 0.00 87 1017.2
20260904024039 53 0.0 0.0 0.00 0.00 0.00 87 1017.1
20260904023537 54 0.0 0.0 0.00 0.00 0.00 87 1017.0
20260904023036 54 0.0 0.0 0.00 0.00 0.00 87 1017.0
20260904022534 54 0.0 0.0 0.00 0.00 0.00 87 1017.1
20260904022032 54 0.0 0.0 0.00 0.00 0.00 86 1017.1
20260904021531 54 0.0 0.0 0.00 0.00 0.00 86 1017.2
20260904021029 54 0.0 0.0 0.00 0.00 0.00 86 1017.3
20260904020527 54 0.0 0.0 0.00 0.00 0.00 86 1017.3
20260904020025 54 0.0 0.0 0.00 0.00 0.00 86 1017.3
20260904015524 54 0.0 0.0 0.00 0.00 0.00 86 1017.3
20260904015022 55 0.0 0.0 0.00 0.00 0.00 84 1017.3
20260904014520 55 0.0 0.0 0.00 0.00 0.00 84 1017.4
20260904014019 55 0.0 0.0 0.00 0.00 0.00 84 1017.4
20260904013517 55 0.0 0.0 0.00 0.00 0.00 84 1017.4
20260904013015 55 0.0 0.0 0.00 0.00 0.00 84 1017.4
20260904012514 55 0.0 0.0 0.00 0.00 0.00 83 1017.4
20260904012010 55 0.0 0.0 0.00 0.00 0.00 82 1017.4
20260904011509 55 0.0 0.0 0.00 0.00 0.00 82 1017.4
20260904010505 55 0.0 0.0 0.00 0.00 0.00 81 1017.4
20260904010003 56 0.0 0.0 0.00 0.00 0.00 81 1017.4
20260904005000 56 0.0 0.0 0.00 0.00 0.00 81 1017.4
20260904004458 56 0.0 0.0 0.00 0.00 0.00 81 1017.4
20260904002953 57 0.0 0.0 0.00 0.00 0.00 80 1017.5
20260904002453 57 0.0 0.0 0.00 0.00 0.00 80 1017.5
20260904001951 57 0.0 0.0 0.00 0.00 0.00 79 1017.5
20260904001448 57 0.0 0.0 0.00 0.00 0.00 79 1017.5
20260904000946 57 0.0 0.0 0.00 0.00 0.00 79 1017.5
20260904000447 57 0.0 0.0 0.00 0.00 0.00 78 1017.5
20260903235440 58 0.0 0.0 0.00 0.00 0.00 77 1017.3
20260903234938 58 0.0 0.0 0.00 0.00 0.00 77 1017.4
20260903234435 58 0.0 0.0 0.00 0.00 0.00 75 1017.3
20260903233933 58 0.0 0.0 0.00 0.00 0.00 75 1017.3
20260903233431 59 0.0 0.0 0.00 0.00 0.00 74 1017.3
20260903232427 59 0.0 0.0 0.00 0.00 0.00 74 1017.2
20260903231925 59 0.0 0.0 0.00 0.00 0.00 73 1017.2
20260903230922 60 0.0 0.0 0.00 0.00 0.00 71 1017.1
20260903230420 60 0.0 0.0 0.00 0.00 0.00 71 1017.1
20260903225324 60 0.0 0.0 0.00 0.00 0.00 71 1017.0
20260903224821 60 0.0 0.0 0.00 0.00 0.00 70 1017.0
20260903224319 61 0.0 0.0 0.00 0.00 0.00 70 1017.0
20260903223817 61 0.0 0.0 0.00 0.00 0.00 69 1017.0
20260903223315 61 0.0 0.0 0.00 0.00 0.00 68 1016.9
20260903222813 61 0.0 0.0 0.00 0.00 0.00 66 1016.9
20260903222311 62 0.0 0.0 0.00 0.00 0.00 66 1016.9
20260903221810 62 0.0 0.0 0.00 0.00 0.00 63 1016.9
20260903221308 63 0.0 0.0 0.00 0.00 0.00 62 1016.9
20260903220805 63 0.0 0.0 0.00 0.00 0.00 59 1017.0
20260903220303 63 0.0 0.0 0.00 0.00 0.00 56 1016.9
20260903215801 64 0.0 0.0 0.00 0.00 0.00 55 1016.9
20260903215258 64 0.0 0.0 0.00 0.00 0.00 53 1016.8
20260903214756 65 0.0 0.0 0.00 0.00 0.00 53 1016.8
20260903214254 65 0.0 0.0 0.00 0.00 0.00 51 1016.7
20260903213752 66 0.0 0.0 0.00 0.00 0.00 48 1016.6
20260903213250 67 0.0 0.0 0.00 0.00 0.00 46 1016.6
20260903212748 68 0.0 0.0 0.00 0.00 0.00 45 1016.6